Temperature
15 15 15 15 15 15 14 14 14 14 14 14 14 14 14 14 14 14 14 13 13 13 13 13 13 13 13 13 13 12 12 12 12 12 11 11 11 11 11 11 11 11 11
15 15 15 15 15 14 14 14 14 14 14 14 14 14 14 14 14 14 13 14 13 13 13 13 13 13 13 13 13 12 12 12 12 11 11 11 11 11 11 11 11 11 11
15 15 15 15 15 14 14 14 14 14 14 14 14 14 14 14 14 13 13 13 13 13 13 13 13 13 13 13 12 12 12 12 12 11 11 11 11 11 10 10 10 10 10
15 15 15 15 14 14 14 14 14 14 14 14 14 14 14 13 13 13 13 13 13 13 13 13 13 13 12 12 12 12 12 12 11 11 11 11 11 10 10 10 10 10 10
15 15 15 14 14 14 14 14 14 14 14 13 13 13 13 13 13 13 13 13 13 13 13 13 13 13 13 12 12 12 12 11 11 11 11 11 10 10 10 10 10 10 10
15 15 14 14 14 14 14 14 14 13 13 13 13 13 13 13 13 13 13 13 13 13 13 13 12 13 13 12 12 12 12 11 11 11 11 11 10 10 10 10 10 10 9
15 14 14 14 14 14 14 14 14 13 13 13 13 13 13 13 13 13 13 13 13 13 12 12 12 12 12 12 12 12 12 12 11 11 11 10 10 10 10 10 10 10 10
14 14 14 14 14 13 13 13 13 13 13 13 13 13 13 13 13 13 13 12 12 12 12 12 12 12 12 12 12 11 11 11 11 11 11 10 10 10 10 10 10 10 9
14 14 14 13 13 13 13 13 13 13 13 12 13 12 12 12 13 13 12 12 12 12 12 12 12 11 11 11 11 11 11 11 11 11 11 10 10 10 10 10 9 9 9
14 13 13 13 13 13 12 12 12 12 12 12 12 12 12 12 12 12 12 12 11 11 11 11 11 11 11 11 10 10 10 10 10 10 10 10 10 10 10 9 9 9 9
13 13 13 13 12 12 12 12 12 12 12 12 12 12 12 12 12 12 12 11 11 11 11 11 11 11 11 10 10 10 10 10 10 10 10 10 10 10 9 9 9 9 8
13 12 12 12 12 12 12 12 12 12 12 12 12 11 11 11 11 11 11 11 11 11 11 11 11 11 10 10 10 10 10 10 9 9 9 9 9 9 9 9 9 9 8
12 12 12 12 12 12 12 12 11 11 11 11 11 11 11 11 11 11 11 11 11 11 11 11 10 10 10 10 10 9 9 9 9 9 9 9 9 9 9 9 9 8 8
12 12 12 12 12 12 11 11 11 11 11 11 11 11 11 11 11 11 11 10 10 10 10 10 10 10 10 9 9 9 9 9 8 8 8 8 8 8 8 8 8 8 8
12 12 12 12 11 11 11 11 11 11 11 11 11 11 11 11 11 11 11 11 10 10 10 10 9 9 9 9 9 9 9 8 8 8 8 8 8 8 8 8 8 7 7
12 12 11 11 11 11 11 11 11 11 11 11 11 11 11 11 11 11 10 10 10 10 10 9 9 9 9 9 9 8 8 8 8 8 8 8 8 8 7 7 7 7 7
11 11 11 11 11 11 11 11 10 11 11 11 11 11 11 11 11 10 10 10 10 9 9 9 9 9 9 9 9 8 8 8 8 8 8 8 7 7 7 7 7 7 6
11 11 11 11 10 10 10 10 10 10 10 10 11 11 10 10 10 10 10 10 9 9 9 9 9 9 9 9 8 8 8 8 8 8 8 7 7 7 7 7 6 6 6
10 10 10 10 10 10 10 10 10 10 10 10 10 10 10 10 10 9 9 9 9 9 9 9 9 9 9 8 8 8 8 8 8 8 7 7 7 7 6 6 6 6 6
10 10 10 10 10 10 10 10 9 9 9 9 10 10 10 9 9 9 9 9 9 9 9 9 9 9 8 8 8 8 8 8 8 7 7 7 7 6 6 6 6 6 6
9 9 9 9 9 9 9 9 9 9 9 9 9 10 10 10 9 9 9 9 9 9 9 9 9 9 8 8 8 8 8 7 7 7 7 7 6 6 6 6 6 6 5
9 9 9 9 9 9 9 9 9 9 9 9 9 9 9 9 9 9 9 9 9 9 9 9 8 8 8 8 8 8 7 7 7 7 7 7 6 6 6 6 6 5 5
9 8 8 8 8 8 8 8 9 9 9 9 8 8 8 8 8 8 9 8 8 8 8 8 8 8 8 8 7 7 7 7 7 7 7 6 6 6 6 5 5 5 5
8 8 8 8 8 8 8 8 8 8 8 8 8 8 8 8 8 8 8 8 8 8 8 8 8 8 8 8 7 7 7 7 7 6 6 6 6 6 5 5 5 5 5
8 8 8 8 8 8 8 8 8 8 8 8 8 8 8 8 8 8 8 7 7 7 7 7 7 7 7 7 7 7 7 7 6 6 6 6 6 5 5 5 5 4 4
8 7 7 7 7 7 7 7 7 7 7 7 7 7 7 7 7 7 7 7 7 7 7 7 7 7 7 7 7 7 7 6 6 6 5 5 5 5 5 5 4 4 4
Wind_Speed
4 4 4 3 3 3 3 2 2 2 2 2 2 2 2 2 2 1 1 1 2 2 2 2 1 1 1 2 2 2 2 1 1 1 1 2 2 1 2 1 1 1 3
5 4 4 4 3 3 3 3 3 2 2 2 2 2 2 1 1 1 2 2 2 2 2 2 2 1 2 2 2 2 2 2 2 2 3 2 2 1 0 0 1 1 2
4 5 4 4 4 4 4 3 3 3 3 3 3 2 2 2 2 2 2 3 2 2 2 2 2 2 2 2 2 2 2 2 2 3 2 2 2 2 1 1 1 0 0
4 5 5 5 5 5 4 4 4 3 3 3 3 3 2 2 3 3 2 2 2 2 2 2 2 3 3 3 2 3 3 3 3 3 3 3 3 3 3 2 1 1 1
4 5 5 5 5 4 4 4 4 4 4 4 4 3 3 2 2 2 2 2 3 2 2 2 2 2 3 2 2 3 3 3 4 4 3 3 3 3 3 2 2 2 1
5 5 4 4 4 4 4 4 4 4 4 4 4 4 3 2 0 2 3 3 3 3 3 2 2 2 2 2 2 2 3 4 4 4 4 4 4 4 3 3 3 3 2
5 5 4 4 4 4 4 4 4 5 5 4 4 4 4 3 2 3 4 4 4 3 3 3 2 2 2 3 4 4 3 3 5 5 5 5 4 4 4 4 4 3 2
5 5 5 4 5 5 5 5 5 5 4 5 5 4 4 3 4 4 4 4 4 4 4 3 3 3 3 3 3 3 3 3 4 5 5 4 4 4 4 4 3 2 2
5 5 5 5 5 5 6 6 5 5 5 5 4 5 5 4 5 5 5 4 4 4 4 4 4 4 2 2 4 4 3 2 0 1 2 1 1 1 2 3 3 3 3
5 5 5 6 6 6 6 6 5 5 5 5 5 5 5 5 5 5 6 4 5 4 4 4 3 3 2 4 5 4 4 3 3 3 4 4 4 4 5 5 4 4 4
5 5 5 6 6 6 6 6 6 5 5 5 5 5 5 5 5 6 6 5 5 5 4 4 3 4 4 5 5 4 3 3 3 3 3 3 3 3 4 4 4 4 4
4 5 5 6 5 5 6 6 6 6 6 6 6 6 5 5 5 5 6 7 5 5 4 4 3 5 5 5 4 2 1 2 2 2 3 3 3 3 3 3 3 3 3
5 5 5 6 6 6 6 6 6 6 6 6 6 5 5 4 4 6 7 7 7 5 4 2 2 4 5 5 5 5 5 4 4 4 3 3 3 2 2 2 2 2 2
6 6 6 6 6 6 5 6 6 6 6 6 6 6 5 5 5 4 5 5 6 5 4 3 5 5 5 3 4 5 5 4 4 4 3 3 2 2 3 3 3 3 2
6 6 6 6 6 6 6 6 7 7 6 7 7 7 6 6 5 4 4 5 5 5 4 4 4 4 4 4 4 4 4 4 4 4 3 3 3 3 3 3 3 3 4
6 6 5 5 5 5 5 5 5 6 6 7 6 7 6 5 5 6 6 5 5 5 5 5 6 6 6 6 6 5 5 5 5 4 4 4 4 4 4 3 3 4 4
6 6 5 5 5 5 6 5 5 5 5 6 7 7 7 6 6 7 7 6 7 7 6 6 6 6 6 6 6 6 5 5 5 5 4 4 4 4 4 4 4 4 4
6 6 5 5 6 6 6 6 6 6 5 5 6 7 8 7 7 7 7 5 5 7 7 7 6 6 6 6 6 6 5 5 5 5 5 5 5 5 5 5 4 4 4
6 5 5 5 5 6 6 6 6 6 6 5 4 5 6 7 7 7 8 6 6 6 6 6 6 6 6 5 5 5 5 5 5 5 5 5 5 5 5 5 4 5 5
6 6 5 5 5 6 6 6 6 6 6 6 5 5 4 4 4 5 6 6 6 6 6 6 6 6 5 5 5 5 5 5 5 5 5 5 5 5 5 6 5 5 4
6 5 7 6 6 6 6 6 6 6 6 6 6 5 5 6 6 6 6 6 6 6 6 6 5 5 5 5 5 6 6 5 5 5 5 5 5 5 5 5 5 5 4
5 5 6 6 6 6 6 6 6 6 6 6 5 5 7 6 5 5 5 6 6 5 5 5 5 5 5 5 5 6 6 5 5 5 5 5 5 5 5 5 5 5 4
5 5 6 6 6 6 6 6 5 6 6 6 5 5 5 5 5 5 5 4 4 4 4 5 5 4 5 5 5 5 6 6 5 5 5 5 5 5 5 5 6 5 5
5 5 5 5 5 5 6 6 5 5 5 5 5 5 5 5 5 5 4 4 3 4 4 4 4 5 6 5 5 5 6 5 5 6 7 6 6 5 5 5 5 5 5
5 5 5 5 5 5 5 5 5 5 5 5 5 4 4 4 4 4 4 4 4 4 4 4 4 5 7 7 6 5 5 6 6 6 6 6 6 6 6 6 5 5 5
4 5 5 4 4 5 5 5 5 5 5 5 4 4 4 4 4 4 3 3 3 3 4 4 4 5 6 6 6 5 6 7 8 8 7 6 6 6 6 5 6 6 5
Wind_Direction
190 201 208 208 220 220 222 227 234 221 205 208 215 223 224 217 211 200 236 229 245 237 227 233 238 245 219 217 232 229 223 220 186 157 148 147 159 144 124 98 67 61 70
191 200 206 201 214 223 222 229 230 229 228 226 216 222 229 237 236 230 232 244 246 250 243 232 233 219 237 234 230 228 210 201 204 193 180 178 191 189 167 143 82 71 58
197 208 211 209 217 225 231 232 235 233 231 232 228 231 230 230 233 239 237 247 248 249 246 241 245 240 244 232 230 226 209 196 202 206 187 179 205 197 214 220 203 136 39
200 213 219 220 223 227 235 235 235 230 228 233 238 233 230 232 233 235 236 247 250 251 253 251 256 251 246 238 230 226 211 201 200 204 202 200 206 205 221 229 222 211 284
204 217 223 228 226 229 232 232 232 228 229 233 240 239 235 240 250 255 239 246 253 251 243 246 263 325 342 292 258 231 213 213 209 211 212 212 212 210 218 225 237 239 241
209 219 221 227 224 225 230 228 227 228 230 229 235 237 238 240 47 309 274 243 249 251 249 247 241 213 215 218 267 287 269 234 225 223 227 226 226 220 217 222 231 242 253
215 220 219 223 226 228 229 227 224 226 227 227 231 231 235 227 181 220 253 257 250 253 255 250 244 233 222 216 190 198 232 273 276 255 242 236 231 216 211 217 229 249 266
218 219 221 222 225 225 226 228 228 227 224 226 229 230 233 228 193 208 222 238 246 249 248 243 239 238 229 228 212 208 218 224 236 242 246 246 234 220 218 224 228 231 244
220 219 220 220 223 225 226 229 229 228 227 226 225 227 233 228 191 201 220 233 238 244 243 245 250 249 159 210 224 218 218 222 154 273 310 317 8 248 221 207 210 221 236
222 224 225 227 226 227 230 229 226 225 227 230 228 231 233 237 196 202 226 232 237 241 240 241 239 247 188 205 222 227 230 230 218 204 199 199 204 199 213 225 230 240 249
226 225 227 229 230 229 229 226 223 223 225 229 232 232 234 236 207 204 221 234 238 240 238 236 228 188 205 216 240 243 257 261 230 224 212 201 198 200 205 223 240 248 255
225 227 229 230 231 227 224 224 222 219 222 227 231 234 234 227 221 207 212 234 253 239 240 240 224 184 205 213 222 218 180 235 231 215 212 214 216 216 215 214 226 240 261
226 229 232 232 230 227 222 220 220 220 225 229 229 232 233 231 215 199 208 220 233 237 241 239 208 191 204 211 208 199 201 223 225 223 221 225 232 228 212 199 207 211 248
231 234 233 232 231 226 223 223 222 222 226 230 232 232 234 229 225 218 216 216 216 226 230 192 189 203 221 226 199 203 220 225 226 227 231 229 221 220 218 212 215 211 224
232 234 232 229 228 226 225 228 229 230 232 233 235 234 230 230 224 207 219 223 221 222 215 210 213 213 216 216 217 216 216 213 219 224 219 220 219 221 226 229 229 228 235
234 232 232 229 227 226 228 234 234 238 233 236 242 241 236 233 199 197 218 230 217 195 205 219 223 224 225 223 220 216 213 214 218 219 219 223 224 224 224 225 225 227 234
236 235 232 230 228 227 229 230 236 238 230 230 233 234 235 218 204 206 210 211 202 193 216 229 231 230 227 225 222 220 218 218 215 216 220 223 226 227 227 227 227 228 234
238 235 231 230 230 232 231 233 233 234 237 240 229 220 218 213 208 204 194 188 207 211 228 231 229 229 227 225 221 221 220 215 214 216 220 223 223 224 225 228 230 231 236
236 233 230 234 234 234 233 233 233 234 237 235 234 217 206 206 199 195 187 209 217 220 225 229 230 230 230 226 221 219 217 216 215 214 217 221 223 225 226 227 230 230 236
237 226 227 231 232 232 229 228 229 230 232 232 229 224 202 197 210 207 211 226 229 226 227 229 231 231 226 221 216 214 215 217 216 217 217 220 223 226 226 226 227 226 229
237 224 214 225 229 229 228 227 227 229 231 232 231 219 196 208 217 218 219 225 229 229 229 229 227 226 222 219 215 214 216 218 217 216 216 218 221 225 227 228 228 229 231
231 226 222 224 225 227 227 226 227 230 232 234 236 216 188 213 221 221 224 229 232 235 232 230 231 227 221 217 216 216 217 218 217 217 217 217 218 221 223 224 222 224 226
227 223 223 223 223 218 222 225 225 229 233 234 232 222 210 220 225 227 231 237 240 237 232 226 229 230 225 220 219 219 219 219 218 213 210 213 214 216 216 218 220 223 226
226 224 225 223 221 221 222 224 226 229 230 229 226 223 221 223 228 230 236 240 239 239 234 229 230 231 228 224 221 221 224 221 215 213 210 210 212 215 214 216 219 221 223
228 225 222 220 219 220 222 224 225 225 226 229 229 227 227 226 227 228 236 238 239 239 240 236 233 233 230 226 224 220 208 200 201 205 204 208 209 210 211 212 212 215 216
226 226 222 219 219 221 224 224 223 222 224 227 229 229 227 227 229 233 236 235 238 241 242 239 237 236 233 227 222 207 188 187 189 194 198 202 203 204 205 207 206 208 213
Height
1545 1547 1547 1548 1548 1549 1549 1549 1549 1549 1549 1549 1549 1549 1549 1548 1548 1547 1547 1547 1547 1547 1546 1546 1546 1545 1545 1544 1544 1544 1544 1544 1544 1544 1543 1543 1542 1541 1541 1540 1540 1538 1537
1544 1545 1546 1546 1547 1548 1548 1548 1548 1548 1548 1548 1547 1547 1547 1547 1547 1546 1546 1545 1545 1545 1545 1545 1544 1544 1543 1543 1543 1542 1542 1542 1542 1542 1542 1541 1541 1541 1540 1540 1539 1538 1537
1542 1543 1544 1544 1545 1546 1546 1546 1546 1546 1546 1546 1546 1546 1545 1545 1545 1545 1544 1544 1544 1544 1543 1543 1543 1543 1542 1542 1541 1541 1541 1540 1540 1541 1540 1540 1540 1539 1539 1538 1538 1537 1536
1540 1541 1542 1542 1543 1543 1544 1544 1544 1544 1544 1544 1544 1544 1543 1543 1543 1543 1543 1543 1542 1542 1541 1541 1541 1541 1540 1540 1539 1539 1539 1538 1538 1539 1539 1538 1538 1538 1537 1537 1537 1536 1535
1537 1538 1539 1540 1540 1540 1541 1540 1541 1541 1541 1541 1542 1541 1541 1541 1541 1541 1541 1540 1540 1540 1539 1539 1538 1538 1538 1538 1537 1537 1537 1537 1537 1537 1537 1536 1536 1536 1536 1535 1535 1534 1533
1534 1535 1536 1536 1537 1537 1537 1538 1538 1538 1539 1539 1539 1539 1539 1539 1538 1538 1538 1538 1538 1538 1537 1537 1536 1535 1535 1535 1534 1534 1535 1535 1535 1535 1534 1534 1534 1534 1534 1534 1533 1533 1533
1531 1532 1532 1533 1533 1534 1534 1535 1535 1535 1535 1535 1536 1536 1536 1536 1536 1535 1535 1535 1535 1535 1534 1534 1533 1533 1532 1532 1532 1531 1532 1532 1532 1532 1532 1532 1532 1532 1531 1531 1531 1531 1531
1527 1528 1529 1529 1530 1530 1531 1531 1531 1531 1532 1532 1532 1532 1532 1532 1532 1532 1532 1532 1531 1531 1531 1531 1530 1530 1529 1529 1529 1529 1529 1528 1528 1528 1528 1528 1529 1529 1529 1529 1529 1528 1528
1524 1524 1525 1525 1526 1526 1527 1527 1528 1528 1528 1528 1528 1528 1528 1528 1529 1529 1528 1528 1528 1528 1528 1527 1527 1527 1526 1526 1526 1526 1525 1525 1525 1525 1525 1525 1525 1526 1526 1526 1526 1526 1526
1520 1520 1521 1521 1522 1522 1523 1523 1524 1524 1524 1524 1524 1525 1525 1525 1525 1525 1525 1525 1525 1524 1524 1523 1523 1523 1523 1522 1523 1523 1523 1522 1522 1521 1521 1522 1522 1522 1522 1523 1523 1524 1523
1516 1516 1517 1517 1518 1518 1518 1519 1519 1520 1520 1520 1520 1520 1520 1520 1520 1520 1521 1521 1521 1521 1520 1520 1520 1519 1519 1519 1519 1520 1520 1519 1519 1519 1518 1519 1519 1519 1519 1519 1520 1520 1520
1512 1512 1512 1513 1513 1514 1514 1514 1515 1515 1515 1516 1516 1516 1516 1516 1516 1516 1516 1517 1517 1517 1517 1517 1516 1516 1515 1516 1516 1516 1516 1516 1516 1516 1515 1516 1516 1516 1516 1516 1516 1516 1516
1507 1508 1508 1508 1509 1509 1509 1510 1510 1511 1511 1511 1512 1512 1512 1512 1512 1512 1512 1512 1512 1513 1513 1512 1512 1512 1512 1512 1512 1512 1513 1513 1513 1513 1512 1513 1513 1513 1513 1512 1512 1512 1512
1503 1503 1504 1504 1504 1505 1505 1505 1506 1506 1506 1507 1507 1507 1507 1507 1507 1508 1508 1508 1508 1508 1508 1508 1508 1508 1508 1508 1508 1509 1509 1509 1509 1509 1509 1509 1509 1509 1509 1509 1509 1508 1508
1498 1499 1499 1499 1499 1500 1500 1500 1500 1501 1501 1502 1502 1502 1502 1502 1503 1503 1503 1504 1504 1504 1504 1504 1504 1504 1504 1504 1504 1505 1505 1505 1505 1505 1505 1505 1505 1505 1505 1505 1505 1505 1504
1494 1494 1494 1494 1495 1495 1495 1495 1495 1496 1496 1497 1497 1497 1497 1498 1498 1498 1499 1500 1500 1500 1500 1500 1500 1500 1500 1500 1500 1500 1500 1501 1501 1501 1501 1501 1501 1501 1501 1501 1501 1501 1501
1489 1489 1489 1489 1490 1490 1490 1490 1490 1490 1490 1491 1491 1491 1492 1493 1493 1494 1494 1495 1495 1495 1495 1495 1495 1496 1496 1496 1496 1496 1496 1496 1496 1497 1497 1497 1497 1497 1497 1497 1497 1497 1496
1484 1484 1484 1484 1484 1485 1485 1485 1485 1485 1485 1485 1485 1486 1487 1488 1488 1489 1489 1490 1490 1490 1490 1490 1491 1491 1491 1491 1491 1491 1491 1491 1492 1492 1492 1492 1493 1493 1493 1493 1493 1493 1492
1479 1479 1479 1479 1479 1479 1480 1480 1480 1480 1480 1480 1481 1481 1482 1483 1483 1484 1484 1484 1484 1484 1485 1485 1485 1486 1486 1486 1486 1486 1487 1487 1487 1488 1488 1488 1488 1488 1488 1488 1488 1488 1488
1473 1473 1473 1474 1474 1474 1474 1475 1475 1475 1475 1476 1476 1477 1477 1478 1478 1478 1479 1479 1479 1479 1480 1480 1480 1480 1481 1481 1481 1481 1482 1482 1483 1483 1483 1483 1484 1484 1484 1484 1484 1484 1483
1467 1467 1468 1468 1469 1469 1470 1470 1470 1471 1471 1471 1472 1472 1473 1473 1473 1474 1474 1474 1474 1475 1475 1475 1475 1475 1476 1476 1476 1477 1477 1477 1478 1478 1478 1479 1479 1479 1479 1480 1479 1479 1479
1462 1462 1462 1463 1463 1464 1465 1465 1466 1466 1466 1467 1467 1468 1468 1468 1469 1469 1469 1469 1469 1470 1470 1470 1470 1470 1470 1471 1471 1471 1472 1472 1473 1473 1473 1474 1474 1475 1475 1475 1475 1475 1475
1456 1457 1457 1458 1459 1459 1460 1461 1461 1461 1462 1462 1463 1463 1463 1464 1464 1464 1465 1465 1465 1465 1465 1465 1465 1465 1465 1466 1466 1466 1467 1467 1468 1468 1469 1469 1469 1470 1470 1470 1470 1470 1470
1451 1452 1452 1453 1454 1455 1455 1456 1456 1457 1457 1458 1458 1459 1459 1459 1459 1460 1460 1460 1460 1460 1460 1460 1460 1460 1460 1460 1461 1461 1462 1463 1463 1464 1464 1464 1465 1465 1465 1466 1466 1466 1466
1447 1448 1448 1449 1449 1450 1451 1451 1452 1452 1453 1453 1454 1454 1454 1454 1455 1455 1455 1455 1455 1455 1455 1455 1455 1455 1455 1455 1456 1456 1457 1458 1458 1459 1459 1459 1460 1460 1461 1461 1461 1461 1461
1443 1444 1444 1445 1445 1446 1446 1447 1447 1448 1448 1449 1449 1450 1450 1450 1450 1450 1450 1450 1450 1450 1450 1450 1450 1450 1450 1450 1450 1451 1452 1452 1453 1454 1454 1454 1455 1455 1456 1456 1456 1457 1457